User: anonymous   Login
Location: Newark
(25.1987°N, 100.3705°W)
Time: 12:00:02
(UTC+00:00)
Language:

ISS - Orbit

View from above orbital plane
View from above orbital plane
View from above satellite
View from above satellite

Ground track
Ground track

The orbit data is extracted from the following two-line orbital elements,

1 25544U 98067A   20155.02423861  .00016717  00000-0  10270-3 0  9028
2 25544  51.6444  58.5739 0001591  14.9565 345.1632 15.49449369 29817
Epoch (UTC): 03 June 2020 00:34:54
Eccentricity: 0.0001591
inclination: 51.6444°
perigee height: 417 km
apogee height: 419 km
right ascension of ascending node: 58.5739°
argument of perigee: 14.9565°
revolutions per day: 15.49449369
mean anomaly at epoch: 345.1632°
orbit number at epoch: 2981

The dashed part of the orbit path shows where the satellite is in the earth's shadow,  

DLR